Temperature
3 3 3 4 4 3 3 4 3 4 3 5 4 4 4 5 5 5 5 5 5 5 5 4 4 4 4 3 3 3 3 3 3 3 3 3 3 3 3 3 3 3 3 3
3 4 3 3 4 4 4 4 4 4 4 5 5 5 4 4 4 4 5 5 5 5 5 4 4 4 4 3 3 3 3 2 2 2 2 2 2 2 2 2 2 2 2 2
3 3 4 4 4 4 3 3 3 4 5 4 4 3 4 4 5 5 5 5 5 5 5 4 4 4 3 3 3 3 2 2 2 2 2 2 2 2 2 2 2 2 2 2
2 3 5 6 5 4 4 4 3 4 4 3 4 5 5 5 5 5 5 5 5 5 5 4 4 4 3 3 3 2 2 2 2 1 1 1 1 1 1 1 1 1 1 1
2 2 4 5 5 4 4 4 4 3 4 4 4 4 5 6 6 5 5 5 5 5 4 4 4 3 3 3 3 2 2 2 1 1 1 1 1 1 1 1 1 1 1 1
2 3 4 6 5 5 5 5 5 4 3 3 3 3 4 6 6 6 5 5 5 5 4 4 4 3 3 3 3 2 2 2 1 1 1 1 1 0 0 0 0 0 0 -0
2 2 3 4 4 5 5 6 6 5 5 4 3 4 6 6 6 6 5 5 5 4 4 4 3 3 3 3 3 2 2 2 1 1 1 1 0 0 -0 -0 -0 -0 -0 -0
1 2 3 4 3 4 5 6 6 6 6 5 6 6 6 6 6 5 5 5 5 4 4 4 3 3 3 3 2 2 2 2 1 1 1 0 0 -0 -0 -1 -1 -1 -1 -1
2 4 5 5 5 6 6 6 6 6 6 6 5 5 5 5 5 5 5 5 4 4 4 3 3 3 3 2 2 2 2 1 1 1 1 0 -0 -0 -0 -1 -1 -1 -1 -1
1 2 3 5 5 6 6 6 6 6 5 5 5 5 5 5 5 5 4 4 4 4 3 3 3 2 2 2 2 1 1 1 1 1 0 0 -0 -1 -1 -1 -2 -2 -2 -2
1 2 3 5 6 7 7 6 6 6 5 5 5 5 5 5 5 4 4 4 4 3 3 3 3 2 2 2 1 1 1 1 1 0 -0 -0 -0 -1 -1 -1 -2 -2 -2 -2
3 4 3 5 7 6 6 6 5 5 5 5 4 4 4 4 4 4 4 4 3 3 3 3 2 2 2 1 1 1 1 0 0 -0 -1 -1 -1 -1 -1 -2 -2 -2 -2 -3
5 6 6 6 6 5 5 5 4 4 4 4 4 4 4 4 4 3 3 3 3 3 2 2 2 2 1 1 1 0 0 -0 -0 -1 -1 -1 -2 -2 -2 -2 -2 -2 -2 -3
5 4 4 4 5 5 4 4 4 4 4 4 3 3 3 3 3 3 3 3 3 2 2 2 2 1 1 1 0 -0 -0 -1 -1 -1 -2 -2 -2 -2 -2 -2 -2 -2 -2 -3
4 4 4 4 4 4 4 3 3 3 3 3 3 3 3 3 3 3 3 2 2 2 2 1 1 1 1 0 -0 -0 -1 -1 -1 -2 -2 -2 -3 -3 -3 -3 -3 -3 -3 -3
3 3 3 3 3 3 3 3 3 3 3 3 3 3 3 2 2 2 2 2 2 2 1 1 1 1 0 0 -0 -1 -1 -1 -2 -2 -2 -3 -3 -3 -3 -3 -4 -4 -4 -4
2 2 2 3 3 3 3 3 3 2 2 2 2 2 2 2 2 2 2 2 1 1 1 1 1 0 -0 -0 -1 -1 -1 -2 -2 -2 -3 -3 -3 -4 -4 -4 -4 -4 -4 -4
3 3 3 3 3 3 3 3 2 2 2 2 2 2 2 2 2 2 1 1 1 1 1 0 0 -0 -1 -1 -1 -2 -2 -2 -2 -3 -3 -3 -4 -4 -4 -4 -4 -4 -4 -4
3 3 3 3 3 3 3 3 2 2 2 2 2 2 2 2 1 1 1 1 1 1 1 0 -0 -1 -1 -1 -2 -2 -2 -2 -3 -3 -3 -4 -4 -4 -4 -4 -5 -5 -5 -5
3 3 3 3 3 3 3 3 2 2 2 2 2 2 2 2 1 1 1 1 1 0 -0 -0 -1 -1 -1 -2 -2 -2 -3 -3 -3 -3 -3 -4 -4 -4 -4 -5 -5 -5 -5 -5
3 3 3 3 3 3 3 2 2 2 2 2 1 2 1 1 1 1 1 1 0 -0 -0 -1 -1 -1 -2 -2 -2 -3 -3 -3 -3 -4 -4 -4 -4 -4 -5 -5 -5 -5 -5 -6
3 3 2 3 3 3 3 2 2 2 2 1 1 1 1 1 1 1 0 0 -0 -1 -1 -1 -1 -2 -2 -3 -3 -3 -3 -4 -4 -4 -4 -4 -5 -5 -5 -5 -5 -5 -6 -6
2 2 2 2 2 2 2 2 2 2 1 1 1 1 1 1 0 0 0 -0 -1 -1 -1 -1 -2 -2 -2 -3 -3 -3 -4 -4 -4 -4 -5 -5 -5 -5 -5 -5 -6 -6 -6 -6
2 2 2 2 2 2 2 2 1 1 1 1 1 0 0 0 0 -0 -0 -1 -1 -1 -1 -2 -2 -2 -3 -3 -3 -4 -4 -4 -4 -5 -5 -5 -5 -6 -6 -6 -6 -6 -6 -6
2 2 2 1 1 1 1 1 1 1 1 1 0 0 -0 -0 -0 -0 -1 -1 -1 -2 -2 -2 -3 -3 -3 -3 -4 -4 -4 -4 -5 -5 -5 -5 -5 -6 -6 -6 -6 -6 -7 -7
1 1 1 1 1 1 1 0 0 0 0 0 0 -0 -0 -0 -1 -1 -1 -1 -2 -2 -2 -3 -3 -3 -3 -4 -4 -4 -4 -5 -5 -5 -5 -6 -6 -6 -6 -6 -6 -7 -7 -7
1 1 1 1 1 1 0 0 -0 -0 -0 -0 -0 -0 -1 -1 -1 -1 -2 -2 -2 -2 -3 -3 -3 -3 -4 -4 -4 -4 -5 -5 -5 -6 -6 -6 -6 -6 -6 -7 -7 -7 -7 -7
Wind_Speed
7 7 6 7 8 9 11 9 9 9 9 14 9 8 7 6 5 5 5 5 5 5 5 4 4 4 3 4 3 3 3 4 5 5 5 5 5 5 4 4 4 4 4 4
5 5 6 9 11 12 12 10 13 13 15 13 9 6 6 6 6 7 7 6 6 5 5 5 5 4 4 4 3 3 3 4 5 5 5 5 5 5 4 4 4 4 4 4
5 6 5 8 10 11 7 8 9 12 12 7 6 7 8 7 7 8 8 7 7 7 7 6 5 5 5 4 3 2 3 4 4 4 4 5 5 4 5 5 4 5 5 4
4 5 6 7 2 7 7 8 11 10 10 7 8 7 7 7 7 8 7 7 7 6 6 5 4 4 3 2 2 2 3 3 4 4 4 4 4 4 4 4 4 4 5 5
1 4 9 8 4 5 6 7 9 12 11 8 5 4 5 5 6 7 7 7 6 6 5 4 4 4 3 2 2 2 3 4 4 3 4 4 4 4 4 3 3 3 4 4
2 3 7 6 1 3 3 6 5 7 8 5 1 1 5 4 3 5 5 5 4 4 3 4 4 3 3 3 3 4 4 4 4 3 3 3 4 4 3 3 3 4 4 4
6 7 10 7 2 4 2 6 2 5 6 5 6 7 5 4 4 4 4 4 4 4 4 5 4 4 4 4 5 5 4 3 3 3 3 3 3 3 3 3 3 3 4 4
6 7 10 5 6 7 8 3 2 4 5 6 8 7 6 5 5 5 4 4 3 4 5 4 3 4 5 6 5 3 3 3 3 3 3 3 2 3 3 2 3 4 4 5
10 11 6 6 8 6 3 5 5 4 6 6 7 7 7 6 6 5 5 5 4 4 5 4 4 5 6 6 3 2 2 3 4 4 3 3 3 3 3 2 2 3 4 4
8 12 11 11 9 9 8 8 8 7 6 6 8 8 8 7 6 5 5 5 4 4 5 5 4 5 6 4 3 3 3 4 3 3 4 3 3 3 3 3 3 3 4 4
9 11 9 10 11 11 9 7 7 7 7 7 8 9 8 7 7 6 6 5 4 5 6 6 5 5 5 3 3 3 4 4 3 3 4 4 4 4 4 4 5 5 4 4
12 11 8 9 7 6 7 8 8 7 7 6 7 9 8 7 7 6 6 5 4 5 6 6 5 5 4 4 4 3 3 4 3 3 3 3 4 5 7 7 9 9 8 6
13 10 9 10 9 7 7 8 8 8 8 8 7 7 7 6 6 5 5 5 6 6 6 5 5 5 5 4 4 4 5 4 3 3 3 4 4 4 5 6 7 8 9 9
11 8 9 10 10 9 7 7 6 6 7 7 6 6 6 6 5 5 7 7 6 5 5 5 5 6 5 4 5 5 5 5 5 4 4 4 4 4 4 5 5 5 6 9
12 10 11 10 8 8 6 5 5 6 6 6 5 6 6 6 7 7 6 5 4 5 5 5 6 7 4 4 5 5 5 4 4 4 4 4 4 4 5 5 6 6 5 6
6 6 7 8 9 9 7 6 7 8 7 6 6 6 7 7 6 6 5 4 4 6 6 6 7 6 4 5 5 4 5 7 5 4 4 4 4 4 5 5 6 5 6 5
7 8 8 8 9 8 8 7 8 8 7 7 7 6 5 5 5 5 6 5 6 6 6 6 7 5 5 5 5 4 4 5 6 5 4 5 5 5 5 5 6 6 6 6
11 11 10 9 8 8 8 7 7 7 7 7 6 5 5 5 6 7 6 4 4 5 6 7 6 5 5 5 5 4 4 4 4 5 5 5 5 5 5 6 6 7 6 6
7 8 8 7 7 6 7 7 7 6 6 5 5 6 6 6 6 6 4 4 5 7 7 6 7 6 5 6 6 4 5 5 5 5 5 6 6 5 5 5 6 6 6 5
5 5 5 5 5 5 6 6 5 5 5 5 5 5 5 6 5 5 4 6 7 6 5 5 5 5 5 6 6 4 5 5 5 5 5 5 5 5 5 6 6 6 6 6
5 5 5 5 5 5 5 5 5 6 5 5 5 6 6 6 4 4 4 6 6 6 6 7 5 4 5 5 6 4 5 5 5 5 5 5 5 6 6 6 6 6 6 6
4 4 5 5 4 5 4 4 4 5 5 5 6 5 5 5 5 5 6 7 6 5 4 4 4 6 6 5 4 4 5 5 5 5 5 5 6 6 6 6 6 6 6 6
5 5 5 5 5 5 4 4 4 5 6 6 6 6 6 6 4 5 6 5 4 6 5 4 6 8 8 5 4 4 5 5 5 5 5 6 6 6 6 6 6 6 6 6
5 5 5 4 3 4 5 6 5 5 5 6 6 6 5 4 5 5 5 6 6 7 5 6 9 9 7 4 4 4 5 5 5 5 5 5 5 5 6 6 6 5 6 6
6 6 5 5 5 6 6 5 5 5 5 5 6 6 5 5 6 5 4 5 7 6 4 6 8 8 5 3 4 5 5 5 5 5 5 5 5 5 5 5 5 5 5 5
7 6 6 7 6 6 5 4 4 5 4 5 5 4 4 4 5 4 4 4 5 6 4 4 4 5 4 4 4 5 5 5 5 5 5 5 5 5 5 5 6 5 5 4
6 6 5 5 6 6 5 5 6 6 6 6 6 5 4 4 4 4 4 4 4 4 4 3 3 3 3 4 4 4 4 4 4 4 4 4 4 4 5 5 4 4 4 4
Wind_Direction
256 260 251 243 237 211 212 216 225 249 252 268 268 259 265 265 258 258 263 264 256 257 258 256 263 273 276 285 299 314 321 321 320 321 325 330 332 332 334 338 335 331 333 329
286 269 258 260 247 229 230 233 242 260 272 269 269 252 255 257 249 253 258 258 258 257 257 253 252 259 269 275 287 303 310 312 318 326 333 337 336 334 339 342 341 342 341 333
286 308 314 271 238 209 207 210 208 235 248 269 276 261 254 250 244 245 252 251 248 248 246 246 243 239 245 255 274 290 297 307 314 320 327 328 333 341 342 341 345 347 343 340
293 335 265 251 211 188 209 233 217 234 254 260 256 267 259 243 241 250 250 250 250 247 246 242 233 232 238 244 254 269 288 301 308 314 317 323 335 340 337 336 341 340 338 336
257 282 281 287 235 179 198 264 222 229 252 267 282 313 287 243 230 237 239 242 244 242 239 229 222 220 216 237 247 263 280 290 297 304 311 320 327 329 329 334 336 335 332 338
207 250 259 263 219 167 131 280 237 205 235 252 137 287 274 273 254 252 251 242 241 240 226 223 224 200 203 234 246 256 265 274 284 294 298 300 303 310 316 322 322 330 334 333
219 244 266 257 197 132 184 258 246 200 220 208 201 224 260 281 270 262 258 254 240 229 228 231 214 191 215 235 246 254 262 272 281 284 284 283 293 302 311 317 326 331 329 329
191 218 255 217 148 188 225 269 241 224 227 226 236 257 271 268 266 268 267 265 248 237 246 238 204 198 228 243 251 255 257 265 273 278 281 289 286 297 310 316 321 320 323 326
202 221 249 199 212 237 240 250 252 242 246 240 249 260 266 264 264 262 256 254 247 238 250 246 217 209 232 249 247 245 254 263 271 276 273 271 267 279 300 307 311 312 313 314
254 261 256 252 252 256 246 243 251 252 257 250 253 261 266 264 262 258 256 249 241 236 245 253 239 229 235 245 228 228 249 261 266 267 274 274 268 262 267 272 280 289 296 301
255 270 282 265 243 244 247 246 250 254 248 244 249 259 257 256 255 251 251 247 232 230 241 250 243 240 242 233 213 230 248 258 264 261 266 272 269 257 257 251 254 267 270 276
243 241 232 258 249 233 236 248 250 255 263 254 240 251 254 253 251 250 249 243 238 238 242 250 244 244 242 224 209 220 246 255 258 262 266 268 279 290 275 271 278 276 277 280
246 259 255 269 271 256 251 253 251 247 252 261 257 245 244 250 250 245 246 241 238 240 243 246 242 245 240 219 211 219 236 247 249 251 259 265 270 280 294 297 284 281 283 286
247 258 270 265 265 264 257 256 255 256 254 251 252 248 241 244 249 245 245 243 240 241 245 243 242 248 239 215 214 226 236 243 244 244 250 255 259 265 271 284 296 293 288 288
246 237 248 264 271 271 269 263 265 268 266 260 247 242 239 240 245 247 246 241 236 241 245 241 244 252 236 211 219 228 233 240 241 241 246 253 256 259 265 271 277 286 293 295
251 249 248 254 259 265 266 259 259 265 265 259 251 244 240 239 245 252 248 226 223 239 243 240 245 248 229 215 224 232 238 248 249 245 248 255 257 259 263 268 274 278 280 284
248 259 254 258 258 262 257 252 253 260 261 257 254 251 243 239 248 254 251 238 234 242 243 240 247 245 224 218 220 232 238 245 247 251 248 250 252 254 259 264 267 271 272 276
235 243 245 248 256 262 266 260 253 255 255 254 255 245 232 230 241 251 253 249 250 258 252 244 242 240 231 226 223 227 232 237 239 244 248 250 255 253 256 261 265 270 277 279
247 247 249 249 248 249 255 257 256 255 255 248 241 239 239 240 244 250 248 244 248 260 260 244 242 234 231 229 228 227 231 238 243 247 249 258 262 258 258 261 266 268 271 273
260 257 256 259 254 244 251 260 260 260 253 239 239 245 253 255 249 246 241 247 246 244 247 247 240 233 232 233 230 226 231 236 242 247 248 247 254 260 260 261 264 267 268 269
260 262 261 263 267 259 252 254 254 257 256 237 231 241 252 261 251 236 239 261 262 242 245 250 241 236 233 235 229 224 229 238 243 245 248 250 255 260 261 261 264 267 268 270
259 260 263 264 267 272 267 256 250 252 253 245 240 240 248 259 258 251 241 245 260 259 252 245 240 242 242 240 226 226 231 237 243 246 247 250 254 259 261 261 263 266 267 268
261 258 259 259 259 269 276 261 251 247 247 245 242 239 240 246 242 244 266 256 250 257 252 245 248 250 249 235 229 231 235 240 243 246 248 248 251 256 260 262 262 263 264 266
265 261 257 255 250 259 270 270 260 251 248 250 245 239 238 250 256 240 244 264 261 260 253 254 255 254 246 228 227 231 236 241 245 249 251 251 251 253 256 259 260 261 262 264
255 251 247 244 248 253 256 265 270 264 257 258 256 249 237 230 238 252 248 249 255 259 258 259 258 255 241 229 230 234 238 242 247 251 251 255 254 253 254 254 254 257 259 259
250 247 245 240 241 245 244 243 252 258 254 263 267 255 243 237 238 245 248 248 248 251 250 251 252 249 235 232 236 238 240 250 256 252 250 256 257 255 254 254 255 256 257 258
250 248 250 255 250 236 228 228 237 248 245 245 258 258 249 245 241 240 242 247 248 250 249 245 239 236 235 236 241 241 239 240 241 243 247 250 252 252 252 252 253 253 254 257
Height
1509 1505 1505 1502 1500 1501 1501 1499 1499 1489 1487 1474 1472 1472 1470 1469 1468 1467 1467 1466 1466 1465 1464 1464 1463 1462 1460 1458 1456 1454 1452 1449 1447 1445 1443 1440 1438 1436 1434 1432 1430 1428 1427 1425
1506 1501 1501 1498 1493 1493 1493 1492 1490 1486 1479 1468 1468 1467 1466 1465 1465 1464 1463 1463 1463 1462 1462 1461 1460 1459 1458 1456 1454 1452 1450 1448 1445 1443 1441 1439 1436 1434 1432 1430 1428 1426 1425 1423
1507 1502 1497 1491 1481 1483 1484 1482 1482 1481 1472 1466 1466 1464 1463 1462 1461 1460 1460 1460 1459 1459 1459 1459 1458 1457 1455 1454 1452 1450 1448 1446 1444 1442 1439 1437 1435 1433 1431 1429 1427 1424 1423 1421
1509 1504 1496 1477 1472 1473 1475 1473 1473 1469 1465 1464 1462 1460 1459 1459 1458 1457 1457 1456 1456 1456 1456 1456 1455 1454 1453 1452 1450 1448 1446 1444 1442 1440 1438 1436 1433 1431 1429 1427 1425 1423 1421 1419
1510 1507 1492 1475 1470 1471 1473 1469 1463 1464 1462 1461 1460 1459 1456 1455 1454 1454 1454 1454 1454 1453 1453 1452 1452 1451 1450 1449 1447 1446 1444 1442 1440 1438 1436 1434 1432 1430 1428 1425 1423 1421 1419 1417
1509 1505 1492 1470 1467 1466 1470 1467 1457 1458 1458 1458 1459 1461 1456 1453 1452 1452 1452 1451 1451 1450 1450 1449 1449 1448 1447 1446 1444 1443 1442 1440 1439 1437 1435 1433 1431 1428 1426 1424 1422 1420 1417 1416
1507 1503 1485 1468 1466 1467 1472 1462 1455 1454 1455 1455 1456 1455 1453 1451 1450 1449 1449 1448 1448 1447 1446 1446 1445 1444 1444 1443 1441 1440 1439 1438 1436 1434 1433 1431 1429 1427 1425 1422 1420 1418 1416 1414
1501 1500 1483 1463 1464 1465 1460 1454 1453 1452 1453 1452 1451 1450 1449 1448 1447 1446 1446 1445 1445 1444 1443 1443 1442 1441 1440 1439 1439 1438 1436 1435 1433 1432 1430 1429 1427 1425 1423 1420 1418 1416 1414 1412
1483 1473 1460 1458 1456 1455 1454 1452 1451 1450 1450 1449 1448 1447 1446 1445 1444 1443 1442 1441 1441 1440 1439 1439 1438 1437 1436 1436 1435 1434 1433 1432 1430 1429 1428 1426 1424 1423 1421 1418 1416 1414 1412 1410
1475 1461 1456 1454 1452 1451 1451 1449 1448 1448 1447 1446 1444 1443 1442 1441 1440 1439 1438 1437 1437 1436 1435 1435 1434 1434 1433 1433 1432 1431 1429 1428 1427 1426 1425 1423 1422 1420 1418 1416 1414 1412 1410 1408
1468 1456 1451 1447 1446 1445 1445 1445 1444 1443 1442 1441 1439 1438 1437 1436 1435 1434 1434 1433 1433 1432 1431 1430 1430 1429 1429 1428 1428 1427 1426 1425 1424 1422 1421 1420 1418 1417 1415 1413 1412 1410 1408 1406
1454 1446 1446 1442 1441 1442 1441 1439 1439 1438 1436 1435 1435 1433 1432 1431 1430 1430 1429 1429 1428 1428 1427 1426 1426 1425 1425 1424 1424 1423 1422 1421 1420 1418 1417 1416 1414 1413 1411 1410 1408 1407 1405 1403
1442 1440 1440 1437 1436 1436 1435 1434 1433 1432 1431 1430 1429 1428 1427 1426 1426 1425 1425 1424 1424 1423 1423 1422 1422 1421 1421 1420 1419 1418 1417 1416 1415 1414 1413 1412 1410 1408 1406 1406 1404 1403 1401 1399
1437 1437 1434 1432 1431 1430 1430 1428 1427 1426 1425 1424 1423 1423 1422 1421 1421 1420 1420 1420 1419 1419 1419 1418 1417 1417 1416 1416 1415 1414 1413 1412 1411 1410 1409 1407 1406 1404 1403 1401 1399 1397 1397 1395
1430 1431 1428 1426 1426 1425 1424 1423 1421 1420 1419 1418 1418 1417 1416 1416 1415 1415 1415 1415 1415 1414 1414 1413 1412 1412 1412 1411 1410 1409 1408 1407 1406 1405 1404 1403 1401 1400 1398 1397 1395 1393 1391 1390
1424 1423 1422 1421 1419 1419 1418 1417 1416 1414 1414 1413 1412 1412 1411 1411 1411 1411 1411 1410 1410 1409 1409 1408 1407 1407 1407 1406 1405 1404 1403 1402 1401 1400 1399 1397 1396 1395 1394 1392 1390 1388 1387 1385
1419 1416 1415 1414 1413 1413 1412 1412 1411 1410 1409 1408 1408 1407 1407 1406 1406 1406 1406 1405 1405 1404 1404 1403 1402 1402 1401 1400 1399 1398 1398 1397 1396 1395 1393 1392 1391 1390 1389 1387 1386 1384 1383 1381
1412 1411 1411 1410 1409 1408 1407 1407 1406 1405 1404 1404 1403 1403 1402 1401 1401 1401 1401 1400 1400 1399 1399 1398 1397 1397 1396 1395 1394 1393 1392 1391 1390 1389 1388 1387 1386 1385 1384 1382 1381 1379 1377 1376
1407 1406 1406 1405 1405 1404 1403 1402 1402 1401 1400 1400 1399 1398 1398 1397 1397 1396 1396 1395 1394 1393 1393 1393 1392 1391 1390 1389 1389 1388 1387 1386 1385 1384 1383 1382 1381 1380 1378 1377 1376 1374 1373 1371
1403 1403 1402 1401 1401 1400 1399 1399 1398 1397 1396 1396 1395 1394 1394 1393 1393 1392 1391 1390 1389 1389 1388 1387 1386 1385 1385 1384 1383 1382 1381 1381 1380 1379 1378 1377 1375 1374 1373 1372 1371 1369 1368 1366
1400 1400 1399 1398 1397 1396 1396 1395 1394 1393 1392 1392 1391 1390 1389 1389 1388 1387 1386 1385 1385 1384 1383 1382 1381 1380 1379 1378 1377 1376 1376 1375 1374 1373 1372 1371 1370 1369 1368 1367 1365 1364 1363 1361
1397 1396 1395 1395 1393 1393 1392 1391 1390 1389 1388 1388 1387 1386 1385 1384 1383 1382 1381 1381 1380 1379 1378 1376 1375 1375 1374 1373 1372 1371 1370 1369 1368 1368 1367 1366 1365 1363 1362 1361 1360 1359 1358 1356
1394 1393 1392 1391 1390 1389 1388 1387 1386 1385 1384 1383 1382 1381 1380 1379 1378 1377 1376 1376 1375 1373 1372 1371 1370 1369 1368 1367 1366 1365 1364 1364 1363 1362 1361 1360 1359 1358 1357 1356 1355 1354 1353 1351
1390 1389 1388 1387 1386 1385 1384 1383 1382 1381 1380 1379 1378 1377 1375 1374 1373 1373 1371 1370 1369 1368 1367 1366 1365 1364 1363 1362 1361 1360 1359 1358 1357 1357 1356 1355 1354 1353 1352 1351 1350 1349 1348 1347
1386 1384 1383 1382 1381 1380 1379 1378 1377 1376 1375 1374 1373 1372 1371 1370 1368 1367 1366 1365 1364 1363 1362 1361 1360 1359 1358 1357 1356 1355 1354 1353 1352 1352 1351 1350 1349 1348 1347 1346 1345 1344 1343 1342
1380 1379 1378 1377 1376 1375 1374 1373 1372 1371 1370 1368 1367 1367 1366 1365 1363 1362 1361 1360 1359 1358 1357 1356 1355 1354 1353 1352 1351 1351 1350 1349 1348 1347 1346 1345 1345 1344 1342 1341 1341 1340 1339 1338
1374 1373 1371 1370 1369 1369 1368 1367 1366 1365 1364 1363 1362 1361 1360 1359 1358 1357 1356 1355 1354 1353 1352 1351 1350 1349 1348 1347 1347 1346 1345 1344 1343 1342 1342 1341 1340 1339 1338 1337 1336 1335 1335 1334